TimePDT,TemperatureF,Dew PointF,Humidity,Sea Level PressureIn,VisibilityMPH,Wind Direction,Wind SpeedMPH,Gust SpeedMPH,PrecipitationIn,Events,Conditions,WindDirDegrees,DateUTC
12:30 AM,53.6,51.8,94,30.22,6.0,Calm,Calm,-,N/A,,Partly Cloudy,0,2013-06-28 07:30:00
12:53 AM,53.1,52.0,96,30.22,7.0,Calm,Calm,-,N/A,,Partly Cloudy,0,2013-06-28 07:53:00
1:36 AM,51.8,51.8,100,30.22,3.0,Calm,Calm,-,N/A,,Mostly Cloudy,0,2013-06-28 08:36:00
1:53 AM,53.1,52.0,96,30.22,4.0,Calm,Calm,-,N/A,,Overcast,0,2013-06-28 08:53:00
1:58 AM,53.6,51.8,94,30.22,1.5,Calm,Calm,-,N/A,,Overcast,0,2013-06-28 08:58:00
2:06 AM,53.6,53.6,100,30.22,0.2,Calm,Calm,-,N/A,Fog,Fog,0,2013-06-28 09:06:00
2:53 AM,55.0,54.0,96,30.21,0.2,Calm,Calm,-,N/A,Fog,Fog,0,2013-06-28 09:53:00
3:53 AM,54.0,53.1,97,30.20,0.5,Calm,Calm,-,N/A,Fog,Fog,0,2013-06-28 10:53:00
3:58 AM,53.6,53.6,100,30.20,2.0,Calm,Calm,-,N/A,,Overcast,0,2013-06-28 10:58:00
4:07 AM,51.8,51.8,100,30.20,4.0,Calm,Calm,-,N/A,,Overcast,0,2013-06-28 11:07:00
4:40 AM,51.8,51.8,100,30.19,5.0,Calm,Calm,-,N/A,,Scattered Clouds,0,2013-06-28 11:40:00
4:53 AM,51.1,51.1,100,30.19,8.0,Calm,Calm,-,N/A,,Clear,0,2013-06-28 11:53:00
5:53 AM,53.1,53.1,100,30.19,8.0,Calm,Calm,-,N/A,,Partly Cloudy,0,2013-06-28 12:53:00
6:19 AM,53.6,53.6,100,30.18,8.0,Calm,Calm,-,N/A,,Overcast,0,2013-06-28 13:19:00
6:37 AM,53.6,53.6,100,30.18,1.8,Calm,Calm,-,N/A,,Overcast,0,2013-06-28 13:37:00
6:53 AM,54.0,54.0,100,30.18,1.5,Calm,Calm,-,N/A,,Mostly Cloudy,0,2013-06-28 13:53:00
6:58 AM,55.4,55.4,100,30.18,3.0,Calm,Calm,-,N/A,,Overcast,0,2013-06-28 13:58:00
7:53 AM,55.9,54.0,93,30.17,6.0,Calm,Calm,-,N/A,,Scattered Clouds,0,2013-06-28 14:53:00
8:53 AM,63.0,59.0,87,30.17,10.0,North,5.8,-,N/A,,Clear,360,2013-06-28 15:53:00
9:53 AM,63.0,57.9,84,30.15,10.0,ESE,3.5,-,N/A,,Clear,120,2013-06-28 16:53:00
10:53 AM,63.0,57.9,84,30.14,10.0,Calm,Calm,-,N/A,,Clear,0,2013-06-28 17:53:00
11:53 AM,68.0,60.1,76,30.14,10.0,Calm,Calm,-,N/A,,Partly Cloudy,0,2013-06-28 18:53:00
12:53 PM,68.0,60.1,76,30.13,10.0,SSE,3.5,-,N/A,,Clear,150,2013-06-28 19:53:00
1:53 PM,69.1,60.1,73,30.12,10.0,Variable,3.5,-,N/A,,Clear,0,2013-06-28 20:53:00
2:53 PM,70.0,60.1,71,30.11,10.0,Variable,4.6,-,N/A,,Clear,0,2013-06-28 21:53:00
3:53 PM,71.1,61.0,70,30.10,10.0,West,3.5,-,N/A,,Clear,270,2013-06-28 22:53:00
4:53 PM,71.1,61.0,70,30.09,10.0,North,5.8,-,N/A,,Clear,350,2013-06-28 23:53:00
5:53 PM,71.1,61.0,70,30.09,10.0,Calm,Calm,-,N/A,,Clear,0,2013-06-29 00:53:00
6:53 PM,64.0,57.9,80,30.09,10.0,ESE,3.5,-,N/A,,Clear,120,2013-06-29 01:53:00
7:53 PM,63.0,57.9,84,30.09,10.0,Calm,Calm,-,N/A,,Clear,0,2013-06-29 02:53:00
8:53 PM,61.0,57.9,90,30.09,10.0,Calm,Calm,-,N/A,,Clear,0,2013-06-29 03:53:00
9:53 PM,59.0,57.9,96,30.10,10.0,Calm,Calm,-,N/A,,Clear,0,2013-06-29 04:53:00
10:53 PM,57.0,55.0,93,30.11,10.0,Calm,Calm,-,N/A,,Clear,0,2013-06-29 05:53:00
11:53 PM,55.9,54.0,93,30.10,8.0,Calm,Calm,-,N/A,,Clear,0,2013-06-29 06:53:00